Hourly Data Report for November 17, 2004

SHERBROOKE A
QUEBEC

45°26'00.000" N
71°41'00.000" W
241.40 m
7028124
71610
YSC

Download Data

Hourly Data (November 2004)
Hourly Data Report for November 17, 2004
TIME
LST
Temp Definition
°C
Dew Point Definition
°C
Rel Hum Definition
%
Precip. Amount Definition
mm

Wind Dir Definition
10's deg

Wind Spd Definition
km/h
Visibility Definition
km
Stn Press Definition
kPa
Hmdx Definition


Wind Chill Definition


Weather Definition


00:00 -2.8 -5.1 84   6 4 15.0 99.67   -4  
01:00 -2.1 -4.6 83   8 7 15.0 99.66   -5  
02:00 -3.5 -5.6 85   10 6 15.0 99.69   -6  
03:00 -3.2 -5.2 86   6 6 15.0 99.70   -6  
04:00 -2.8 -5.0 85   8 7 15.0 99.67   -6  
05:00 -2.9 -5.0 85   7 4 15.0 99.64   -4  
06:00 -2.7 -5.0 84   7 6 15.0 99.68   -5  
07:00 -2.8 -5.2 84   8 6 15.0 99.73   -5 Snow
08:00 -2.4 -4.8 84   5 4 19.3 99.75   -4 Cloudy
09:00 -1.8 -4.3 83   7 4 19.3 99.72   -3 Cloudy
10:00 -0.5 -3.6 80   7 4 19.3 99.67   -2 Cloudy
11:00 1.3 -2.4 76   5 4 19.3 99.61     Cloudy
12:00 2.4 -1.7 74     0 19.3 99.56     Cloudy
13:00 4.0 -0.8 71     0 19.3 99.55     Cloudy
14:00 4.1 -0.9 70     0 19.3 99.54     Cloudy
15:00 3.7 -0.5 74   10 4 19.3 99.52     Cloudy
16:00 3.4 -0.8 74     0 19.3 99.52     Cloudy
17:00 2.2 -1.0 79   4 4 19.3 99.50     Cloudy
18:00 2.4 -0.5 81     0 12.9 99.50      
19:00 2.3 -0.7 81   8 4 12.9 99.46      
20:00 1.5 -0.7 85     0 11.3 99.47      
21:00 1.8 -0.4 85   9 4 11.3 99.46      
22:00 2.0 0.0 87     0 12.9 99.41      
23:00 2.0 -0.1 86     0 11.3 99.37      

Notes on Data Quality.

Legend

  • E = Estimated
  • M = Missing
  • NA = Not Available*
  • [empty] = Indicates an unobserved value
Date modified: